Baku, Azerbaijan

12:27 PM +04 on November 17, 2018 (GMT +0400)
Bina

Weather History for UBBB - February, 2018

Change the Weather History Date:

Monday, February 19, 2018

  Actual Average (WUND) Record (WUND)
Temperature  
Mean Temperature 41 °F -  
Max Temperature 45 °F - - (-1)
Min Temperature 37 °F - - (-1)
Degree Days  
Heating Degree Days 24    
Moisture  
Dew Point 37 °F    
Average Humidity 87    
Maximum Humidity 93    
Minimum Humidity 71    
Precipitation  
Precipitation 0.55 in - - ()
Sea Level Pressure  
Sea Level Pressure 30.07 in    
Wind  
Wind Speed 15 mph ()    
Max Wind Speed 24 mph    
Max Gust Speed -    
Visibility 6.1 miles    
Events Rain    
Averages and records for this station are not official NWS values.
T = Trace of Precipitation, MM = Missing Value Source: Averaged Metar Reports

Daily Weather History Graph

Daily Weather History Graph

Search for Another Location

Airport or City:

Astronomy

Feb. 19, 2018 Rise Set
Actual Time 7:28 AM +04 6:19 PM +04
Civil Twilight 7:00 AM +04 6:47 PM +04
Nautical Twilight 6:28 AM +04 7:18 PM +04
Astronomical Twilight 5:57 AM +04 7:50 PM +04
Moon 9:25 AM +04 (2/19) 9:54 PM +04 (2/19)
Length of Visible Light 11h 46m
Length of Day
10h 50m
Waxing Crescent, 12% of the Moon is Illuminated
Feb 19
Waxing Crescent
Feb 23
First Quarter
Mar 2
Full
Mar 9
Last Quarter
Mar 17
New

Hourly Weather History & Observations

Time (+04) Temp. Windchill Dew Point Humidity Pressure Visibility Wind Dir Wind Speed Gust Speed Precip Events Conditions
12:00 AM 37.4 °F 26.9 °F 35.6 °F 93% 30.04 in 5.0 mi North 20.7 mph - N/A Rain Light Rain
12:30 AM 37.4 °F 26.1 °F 35.6 °F 93% 30.01 in 5.0 mi North 24.2 mph - N/A Rain Light Rain
1:00 AM 38 °F - 36 °F 88% 30.03 in 2 mi NNW 15.7 mph - - Rain Light Rain
1:00 AM 37.4 °F 26.9 °F 35.6 °F 93% 30.01 in 6.2 mi North 20.7 mph - N/A Rain Light Rain
1:30 AM 37.4 °F 26.9 °F 35.6 °F 93% 30.01 in 6.2 mi North 20.7 mph - N/A Rain Light Rain
2:00 AM 37.4 °F 27.5 °F 35.6 °F 93% 30.04 in 6.2 mi North 18.4 mph - N/A Rain Light Rain
2:30 AM 37.4 °F 27.8 °F 35.6 °F 93% 30.04 in 6.2 mi NNW 17.3 mph - N/A Rain Light Rain
3:00 AM 37.4 °F 28.5 °F 35.6 °F 93% 30.04 in 6.2 mi NNW 15.0 mph - N/A Rain Light Rain
3:30 AM 37.4 °F 27.8 °F 35.6 °F 93% 30.01 in 6.2 mi North 17.3 mph - N/A Rain Light Rain
4:00 AM 37 °F - 35 °F 91% 30.03 in 6 mi NW 17.9 mph - -   Partly Cloudy
4:00 AM 37.4 °F 27.8 °F 35.6 °F 93% 30.04 in 6.2 mi North 17.3 mph - N/A Rain Light Rain
4:30 AM 37.4 °F 28.5 °F 35.6 °F 93% 30.04 in 6.2 mi NNW 15.0 mph - N/A Rain Light Rain
5:00 AM 37.4 °F 27.8 °F 35.6 °F 93% 30.04 in 6.2 mi North 17.3 mph - N/A   Overcast
5:30 AM 39.2 °F 32.0 °F 37.4 °F 93% 30.04 in 6.2 mi NNW 11.5 mph - N/A   Overcast
6:00 AM 39.2 °F 30.8 °F 37.4 °F 93% 30.04 in 6.2 mi NNW 15.0 mph - N/A   Overcast
6:30 AM 39.2 °F 30.5 °F 37.4 °F 93% 30.04 in 6.2 mi NNW 16.1 mph - N/A Rain Light Rain
7:00 AM 38 °F - 36 °F 89% 30.04 in 6 mi NW 17.9 mph - -   Overcast
7:00 AM 39.2 °F 30.8 °F 37.4 °F 93% 30.04 in 6.2 mi NNW 15.0 mph - N/A Rain Light Rain
7:30 AM 39.2 °F 30.2 °F 37.4 °F 93% 30.04 in 6.2 mi NNW 17.3 mph - N/A Rain Light Rain
8:00 AM 39.2 °F 30.2 °F 35.6 °F 87% 30.04 in 6.2 mi NNW 17.3 mph - N/A   Overcast
8:30 AM 39.2 °F 30.2 °F 35.6 °F 87% 30.06 in 6.2 mi NNW 17.3 mph - N/A Rain Light Rain
9:00 AM 39.2 °F 29.6 °F 37.4 °F 93% 30.06 in 6.2 mi NNW 19.6 mph - N/A   Overcast
9:30 AM 39.2 °F 29.6 °F 35.6 °F 87% 30.06 in 6.2 mi NNW 19.6 mph - N/A   Overcast
10:00 AM 39 °F - 36 °F 83% 30.07 in 6 mi WNW 11.2 mph - -   Overcast
10:00 AM 41.0 °F 31.9 °F 37.4 °F 87% 30.06 in 6.2 mi NNW 19.6 mph - N/A   Overcast
10:30 AM 41.0 °F 31.6 °F 37.4 °F 87% 30.06 in 6.2 mi NNW 20.7 mph - N/A   Overcast
11:00 AM 39.2 °F 29.8 °F 35.6 °F 87% 30.06 in 6.2 mi NNW 18.4 mph - N/A   Overcast
11:30 AM 39.2 °F 29.8 °F 35.6 °F 87% 30.06 in 6.2 mi NNW 18.4 mph - N/A   Overcast
12:00 PM 41.0 °F 32.2 °F 35.6 °F 81% 30.09 in 6.2 mi NNW 18.4 mph - N/A   Overcast
12:30 PM 41.0 °F 32.2 °F 35.6 °F 81% 30.09 in 6.2 mi NNW 18.4 mph - N/A   Overcast
1:00 PM 41 °F - 36 °F 77% 30.08 in 6 mi WNW 13.4 mph - -   Overcast
1:00 PM 42.8 °F 34.8 °F 37.4 °F 81% 30.06 in 6.2 mi NNW 17.3 mph - N/A   Overcast
1:30 PM 42.8 °F 35.1 °F 37.4 °F 81% 30.06 in 6.2 mi NNW 16.1 mph - N/A   Mostly Cloudy
2:00 PM 42.8 °F 35.4 °F 37.4 °F 81% 30.06 in 6.2 mi NNW 15.0 mph - N/A   Mostly Cloudy
2:30 PM 42.8 °F 35.8 °F 37.4 °F 81% 30.06 in 6.2 mi NNW 13.8 mph - N/A   Mostly Cloudy
3:00 PM 44.6 °F 38.1 °F 37.4 °F 76% 30.06 in 6.2 mi NNW 13.8 mph - N/A   Mostly Cloudy
3:30 PM 44.6 °F 38.1 °F 37.4 °F 76% 30.06 in 6.2 mi NW 13.8 mph - N/A   Mostly Cloudy
4:00 PM 43 °F - 37 °F 71% 30.07 in 6 mi NW 15.7 mph - -   Overcast
4:00 PM 42.8 °F 36.2 °F 37.4 °F 81% 30.06 in 6.2 mi NW 12.7 mph - N/A   Mostly Cloudy
4:30 PM 42.8 °F 36.2 °F 37.4 °F 81% 30.06 in 6.2 mi NW 12.7 mph - N/A   Overcast
5:00 PM 42.8 °F 36.6 °F 37.4 °F 81% 30.09 in 6.2 mi NW 11.5 mph - N/A   Overcast
5:30 PM 41.0 °F 34.7 °F 37.4 °F 87% 30.09 in 6.2 mi NW 10.4 mph - N/A   Overcast
6:00 PM 41.0 °F 33.9 °F 37.4 °F 87% 30.09 in 6.2 mi NNW 12.7 mph - N/A   Overcast
6:30 PM 41.0 °F 34.7 °F 37.4 °F 87% 30.09 in 6.2 mi NW 10.4 mph - N/A   Overcast
7:00 PM 41 °F - 37 °F 79% 30.11 in 6 mi West 11.2 mph - -   Overcast
7:00 PM 41.0 °F 34.7 °F 37.4 °F 87% 30.09 in 6.2 mi NW 10.4 mph - N/A   Overcast
7:30 PM 41.0 °F 34.7 °F 37.4 °F 87% 30.09 in 6.2 mi NW 10.4 mph - N/A   Overcast
8:00 PM 41.0 °F 35.2 °F 37.4 °F 87% 30.12 in 6.2 mi NW 9.2 mph - N/A   Overcast
8:30 PM 41.0 °F 34.7 °F 37.4 °F 87% 30.12 in 6.2 mi NW 10.4 mph - N/A   Overcast
9:00 PM 41.0 °F 34.3 °F 37.4 °F 87% 30.12 in 6.2 mi NW 11.5 mph - N/A   Overcast
9:30 PM 41.0 °F 35.2 °F 37.4 °F 87% 30.12 in 6.2 mi NW 9.2 mph - N/A   Overcast
10:00 PM 41 °F - 37 °F 80% 30.13 in 6 mi West 6.7 mph - -   Overcast
10:00 PM 41.0 °F 35.2 °F 37.4 °F 87% 30.12 in 6.2 mi NW 9.2 mph - N/A   Overcast
10:30 PM 41.0 °F 34.3 °F 37.4 °F 87% 30.12 in 6.2 mi WNW 11.5 mph - N/A   Overcast
11:00 PM 41.0 °F 35.2 °F 39.2 °F 93% 30.12 in 6.2 mi WNW 9.2 mph - N/A Rain Light Rain
11:30 PM 41.0 °F 35.8 °F 37.4 °F 87% 30.12 in 6.2 mi WNW 8.1 mph - N/A Rain Light Rain